Weather History for Villahermosa Airport, Mexico

Change the Weather History Date:

Thursday, May 16, 2013

  Actual Average Record
Temperature  
Mean Temperature 84 °F -  
Max Temperature 96 °F 93 °F 102 °F (2003)
Min Temperature 73 °F 74 °F 68 °F (2014)
Cooling Degree Days 20    
Growing Degree Days 34 (Base 50)    
Moisture  
Dew Point 71 °F    
Average Humidity 66    
Maximum Humidity 94    
Minimum Humidity 34    
Precipitation  
Precipitation 0.00 in - - ()
Sea Level Pressure  
Sea Level Pressure 29.85 in    
Wind  
Wind Speed 2 mph ()    
Max Wind Speed 14 mph    
Max Gust Speed -    
Visibility 5.7 miles    
Events      
Averages and records for this station are not official NWS values.
T = Trace of Precipitation, MM = Missing Value Source: Averaged Metar Reports

Daily Weather History Graph

Daily Weather History Graph

Search for Another Location

Airport:

Trip Planner

Search our weather history database for the weather conditions in past years. The results will help you decide how hot, cold, wet, or windy it might be!

Date:

Astronomy

May. 16, 2013 Rise Set
Actual Time 6:37 AM CDT 7:37 PM CDT
Civil Twilight 6:14 AM CDT 8:00 PM CDT
Nautical Twilight 5:47 AM CDT 8:28 PM CDT
Astronomical Twilight 5:18 AM CDT 8:56 PM CDT
Moon 11:56 AM CDT (5/16) 12:10 AM CDT (5/16)
Length of Visible Light 13h 46m
Length of Day
12h 59m
Waxing Crescent, 36% of the Moon is Illuminated
May 16
Waxing Crescent
May 17
First Quarter
May 24
Full
May 31
Last Quarter
Jun 8
New

Hourly Weather History & Observations

Time (CDT) Temp. Heat Index Dew Point Humidity Pressure Visibility Wind Dir Wind Speed Gust Speed Precip Events Conditions
4:20 AM 73.4 °F - 71.6 °F 94% 29.86 in 5.0 mi Calm Calm - N/A   Mostly Cloudy
4:42 AM 75.2 °F - 73.4 °F 94% 29.86 in 5.0 mi Calm Calm - N/A   Mostly Cloudy
5:43 AM 73.4 °F - 71.6 °F 94% 29.86 in 5.0 mi Calm Calm - N/A   Mostly Cloudy
6:46 AM 75.2 °F - 73.4 °F 94% 29.96 in 3.0 mi Calm Calm - N/A   Overcast
7:40 AM 77.0 °F - 75.2 °F 94% 29.88 in 3.0 mi Calm Calm - N/A   Overcast
8:40 AM 80.6 °F 86.2 °F 75.2 °F 84% 29.88 in 4.0 mi Calm Calm - N/A   Mostly Cloudy
9:46 AM 82.4 °F 88.2 °F 73.4 °F 74% 29.96 in 7.0 mi Calm Calm - N/A   Scattered Clouds
10:47 AM 87.8 °F 95.6 °F 73.4 °F 62% 29.88 in 7.0 mi Calm Calm - N/A   Scattered Clouds
11:43 AM 87.8 °F 93.8 °F 71.6 °F 58% 29.91 in 7.0 mi ESE 5.8 mph - N/A   Partly Cloudy
12:49 PM 89.6 °F 98.2 °F 73.4 °F 59% 29.89 in 7.0 mi East 6.9 mph - N/A   Partly Cloudy
1:43 PM 91.4 °F 98.4 °F 71.6 °F 52% 29.86 in 6.0 mi North 6.9 mph - N/A   Clear
2:46 PM 95.0 °F 101.3 °F 69.8 °F 44% 29.84 in 6.0 mi ENE 13.8 mph - N/A   Clear
3:42 PM 95.0 °F 99.5 °F 68.0 °F 41% 29.83 in 6.0 mi ENE 11.5 mph - N/A   Clear
4:40 PM 96.8 °F 99.0 °F 64.4 °F 34% 29.75 in 6.0 mi NE 9.2 mph - N/A   Clear
5:40 PM 95.0 °F 96.0 °F 62.6 °F 34% 29.74 in 6.0 mi ENE 10.4 mph - N/A   Clear
6:42 PM 91.4 °F 93.2 °F 64.4 °F 41% 29.78 in 6.0 mi ENE 4.6 mph - N/A   Partly Cloudy
7:40 PM 84.2 °F 88.4 °F 69.8 °F 62% 29.76 in 6.0 mi Calm Calm - N/A   Partly Cloudy
8:40 PM 84.2 °F 90.9 °F 73.4 °F 70% 29.78 in 6.0 mi Calm Calm - N/A   Clear
9:40 PM 82.4 °F 87.2 °F 71.6 °F 70% 29.83 in 6.0 mi NE 3.5 mph - N/A   Clear
10:40 PM 80.6 °F 84.6 °F 71.6 °F 74% 29.82 in 6.0 mi NE 8.1 mph - N/A   Clear